When you browse on this site, cookies collect data to enhance your experience and personalize the content and advertising you see.
Visit our Privacy Policy to learn more. By continuing to use the site, you agree to this use of cookies and data.
  • In France
  • List of Countries
  • For 7 days
  • Water Temperature
  • Satellite Maps
  • Weather Map
  • Weather Widgets
  • user-avatar
    Login

    Hourly Weather Sofia

    Today, 22 March, Friday

    Time Temperature Precipitation Wind Pressure Humidity
    00:00 +6°C° 0 mm 1 mps 720 mmHg 90%
    01:00 +5°C° 0 mm 0 mps 720 mmHg 91%
    02:00 +5°C° 0 mm 0 mps 720 mmHg 91%
    03:00 +4°C° 0 mm 0 mps 720 mmHg 91%
    04:00 +4°C° 0 mm 0 mps 720 mmHg 91%
    05:00 +4°C° 0 mm 0 mps 719 mmHg 91%
    06:00 +5°C° 0 mm 0 mps 720 mmHg 87%
    07:00 +5°C° 0 mm 0 mps 720 mmHg 84%
    08:00 +6°C° 0 mm 0 mps 720 mmHg 80%
    09:00 +9°C° 0 mm 1 mps 720 mmHg 70%
    10:00 +11°C° 0 mm 1 mps 720 mmHg 60%
    11:00 +13°C° 0 mm 2 mps 720 mmHg 51%
    12:00 +14°C° 0 mm 2 mps 719 mmHg 47%
    13:00 +15°C° 0 mm 2 mps 719 mmHg 42%
    14:00 +16°C° 0 mm 2 mps 718 mmHg 38%
    15:00 +16°C° 0 mm 2 mps 718 mmHg 39%
    16:00 +14°C° 0 mm 3 mps 718 mmHg 40%
    17:00 +14°C° 0 mm 3 mps 717 mmHg 41%
    18:00 +14°C° 0 mm 2 mps 717 mmHg 48%
    19:00 +12°C° 0 mm 2 mps 717 mmHg 55%
    20:00 +9°C° 0 mm 2 mps 717 mmHg 62%
    21:00 +10°C° 0 mm 1 mps 717 mmHg 65%
    22:00 +9°C° 0 mm 1 mps 717 mmHg 68%
    23:00 +8°C° 0 mm 1 mps 717 mmHg 71%

    Tomorrow, 23 March, Saturday

    Time Temperature Precipitation Wind Pressure Humidity
    00:00 +8°C° 0 mm 1 mps 717 mmHg 73%
    01:00 +7°C° 0 mm 0 mps 717 mmHg 74%
    02:00 +6°C° 0 mm 0 mps 717 mmHg 75%
    03:00 +6°C° 0 mm 0 mps 717 mmHg 75%
    04:00 +6°C° 0 mm 0 mps 717 mmHg 75%
    05:00 +5°C° 0 mm 0 mps 716 mmHg 76%
    06:00 +6°C° 0 mm 0 mps 717 mmHg 72%
    07:00 +7°C° 0 mm 0 mps 717 mmHg 69%
    08:00 +8°C° 0 mm 0 mps 717 mmHg 65%
    09:00 +10°C° 0 mm 0 mps 717 mmHg 58%
    10:00 +13°C° 0 mm 1 mps 717 mmHg 51%
    11:00 +15°C° 0 mm 1 mps 717 mmHg 44%
    12:00 +16°C° 0 mm 2 mps 716 mmHg 41%
    13:00 +17°C° 0 mm 2 mps 716 mmHg 39%
    14:00 +18°C° 0 mm 2 mps 716 mmHg 36%
    15:00 +17°C° 0 mm 2 mps 715 mmHg 37%
    16:00 +17°C° 0 mm 3 mps 715 mmHg 38%
    17:00 +17°C° 0 mm 3 mps 714 mmHg 38%
    18:00 +15°C° 0 mm 2 mps 714 mmHg 45%
    19:00 +13°C° 0 mm 2 mps 714 mmHg 51%
    20:00 +11°C° 0 mm 1 mps 714 mmHg 57%
    21:00 +11°C° 0 mm 1 mps 715 mmHg 60%
    22:00 +10°C° 0 mm 1 mps 715 mmHg 62%
    23:00 +9°C° 0 mm 0 mps 715 mmHg 65%

    Day after tomorrow, 24 March, Sunday

    Time Temperature Precipitation Wind Pressure Humidity
    00:00 +8°C° 0 mm 0 mps 715 mmHg 67%
    01:00 +8°C° 0 mm 0 mps 715 mmHg 69%
    02:00 +7°C° 0 mm 0 mps 715 mmHg 71%
    03:00 +7°C° 0 mm 0 mps 715 mmHg 73%
    04:00 +7°C° 0 mm 0 mps 715 mmHg 75%
    05:00 +6°C° 0 mm 0 mps 715 mmHg 78%
    06:00 +7°C° 0 mm 0 mps 715 mmHg 76%
    07:00 +8°C° 0 mm 0 mps 715 mmHg 74%
    08:00 +9°C° 0 mm 1 mps 716 mmHg 72%
    09:00 +11°C° 0 mm 1 mps 716 mmHg 63%
    10:00 +13°C° 0 mm 2 mps 716 mmHg 53%
    11:00 +15°C° 0 mm 2 mps 716 mmHg 44%
    12:00 +15°C° 0 mm 2 mps 715 mmHg 40%
    13:00 +16°C° 0 mm 2 mps 715 mmHg 36%
    14:00 +17°C° 0 mm 3 mps 715 mmHg 33%
    15:00 +17°C° 0 mm 2 mps 714 mmHg 33%
    16:00 +17°C° 0 mm 2 mps 714 mmHg 34%
    17:00 +16°C° 0 mm 2 mps 713 mmHg 35%
    18:00 +15°C° 0 mm 2 mps 713 mmHg 41%
    19:00 +13°C° 0 mm 1 mps 713 mmHg 47%
    20:00 +11°C° 0 mm 1 mps 713 mmHg 52%
    21:00 +11°C° 0 mm 1 mps 713 mmHg 55%
    22:00 +9°C° 0 mm 0 mps 713 mmHg 57%
    23:00 +8°C° 0 mm 0 mps 713 mmHg 59%

    25 March, Monday

    Time Temperature Precipitation Wind Pressure Humidity
    00:00 +8°C° 0 mm 0 mps 713 mmHg 61%
    01:00 +8°C° 0 mm 0 mps 713 mmHg 62%
    02:00 +8°C° 0 mm 1 mps 713 mmHg 64%
    03:00 +8°C° 0 mm 1 mps 713 mmHg 65%
    04:00 +8°C° 0 mm 1 mps 713 mmHg 67%
    05:00 +7°C° 0 mm 1 mps 712 mmHg 68%
    06:00 +8°C° 0 mm 1 mps 712 mmHg 65%
    07:00 +9°C° 0 mm 1 mps 713 mmHg 62%
    08:00 +10°C° 0 mm 1 mps 713 mmHg 58%
    09:00 +12°C° 0 mm 1 mps 713 mmHg 54%
    10:00 +14°C° 0 mm 2 mps 713 mmHg 49%
    11:00 +16°C° 0 mm 2 mps 712 mmHg 45%
    12:00 +16°C° 0 mm 3 mps 712 mmHg 43%
    13:00 +17°C° 0 mm 3 mps 712 mmHg 41%
    14:00 +18°C° 0 mm 3 mps 711 mmHg 40%
    15:00 +17°C° 0.1 mm 3 mps 711 mmHg 43%
    16:00 +16°C° 0.1 mm 3 mps 711 mmHg 47%
    17:00 +16°C° 0.1 mm 3 mps 710 mmHg 50%
    18:00 +13°C° 0.1 mm 3 mps 711 mmHg 56%
    19:00 +13°C° 0.1 mm 2 mps 711 mmHg 63%
    20:00 +11°C° 0.1 mm 1 mps 711 mmHg 69%
    21:00 +10°C° 0 mm 1 mps 711 mmHg 71%
    22:00 +10°C° 0 mm 1 mps 711 mmHg 72%
    23:00 +9°C° 0 mm 1 mps 711 mmHg 74%

    26 March, Tuesday

    Time Temperature Precipitation Wind Pressure Humidity
    00:00 +8°C° 0 mm 1 mps 711 mmHg 76%
    01:00 +8°C° 0 mm 1 mps 711 mmHg 78%
    02:00 +7°C° 0 mm 1 mps 711 mmHg 80%
    03:00 +7°C° 0.1 mm 1 mps 711 mmHg 79%
    04:00 +7°C° 0.1 mm 1 mps 711 mmHg 78%
    05:00 +6°C° 0.1 mm 2 mps 711 mmHg 77%
    06:00 +6°C° 0.1 mm 2 mps 711 mmHg 74%
    07:00 +5°C° 0.1 mm 3 mps 711 mmHg 70%
    08:00 +5°C° 0.1 mm 4 mps 712 mmHg 67%
    09:00 +6°C° 0 mm 4 mps 712 mmHg 61%
    10:00 +6°C° 0 mm 4 mps 712 mmHg 54%
    11:00 +7°C° 0 mm 4 mps 712 mmHg 48%
    12:00 +7°C° 0 mm 5 mps 711 mmHg 47%
    13:00 +7°C° 0 mm 5 mps 711 mmHg 46%
    14:00 +7°C° 0 mm 6 mps 710 mmHg 44%
    15:00 +7°C° 0 mm 6 mps 710 mmHg 44%
    16:00 +5°C° 0 mm 6 mps 710 mmHg 43%
    17:00 +6°C° 0 mm 5 mps 710 mmHg 43%
    18:00 +5°C° 0.1 mm 5 mps 710 mmHg 47%
    19:00 +4°C° 0.1 mm 4 mps 711 mmHg 52%
    20:00 +3°C° 0.1 mm 3 mps 711 mmHg 57%
    21:00 +2°C° 0 mm 3 mps 711 mmHg 60%
    22:00 +1°C° 0 mm 3 mps 712 mmHg 63%
    23:00 +1°C° 0 mm 2 mps 712 mmHg 66%

    27 March, Wednesday

    Time Temperature Precipitation Wind Pressure Humidity
    00:00 +1°C° 0.1 mm 2 mps 712 mmHg 69%
    01:00 +1°C° 0.1 mm 2 mps 712 mmHg 72%
    02:00 +1°C° 0.1 mm 2 mps 712 mmHg 74%
    03:00 0°C° 0.4 mm 3 mps 712 mmHg 78%
    04:00 0°C° 0.4 mm 3 mps 712 mmHg 81%
    05:00 -1°C° 0.4 mm 4 mps 712 mmHg 84%
    06:00 -1°C° 0.4 mm 4 mps 712 mmHg 84%
    07:00 -1°C° 0.4 mm 4 mps 712 mmHg 83%
    08:00 -1°C° 0.4 mm 4 mps 713 mmHg 82%
    09:00 -1°C° 0.5 mm 5 mps 713 mmHg 81%
    10:00 0°C° 0.5 mm 5 mps 713 mmHg 81%
    11:00 0°C° 0.5 mm 5 mps 713 mmHg 80%
    12:00 0°C° 0.3 mm 5 mps 714 mmHg 78%
    13:00 +1°C° 0.3 mm 5 mps 714 mmHg 75%
    14:00 +2°C° 0.3 mm 5 mps 714 mmHg 73%
    15:00 +2°C° 0 mm 5 mps 714 mmHg 73%
    16:00 +3°C° 0 mm 4 mps 714 mmHg 72%
    17:00 +4°C° 0 mm 4 mps 714 mmHg 71%
    18:00 +3°C° 0 mm 3 mps 715 mmHg 76%
    19:00 +2°C° 0 mm 3 mps 715 mmHg 80%
    20:00 +2°C° 0 mm 2 mps 715 mmHg 84%
    21:00 +1°C° 0 mm 2 mps 716 mmHg 84%
    22:00 +2°C° 0 mm 1 mps 716 mmHg 83%
    23:00 +2°C° 0 mm 1 mps 717 mmHg 82%
    Show more